STARLINK-33908, 63700

Orbit data source: Space-Track

STARLINK-33908, 63700 is a payload satellite owned by SpaceX/Seattle (US) in LEO that was launched on Mon, 28 Apr 2025 UTC via an FALCON 9 launch vehicle from the Air Force Western Test Range (AFWTR). Payload-class satellites include a variety of spacecraft equipped with specific instruments for various scientific and technological missions. These include communications satellites like Starlink; space stations such as the ISS; scientific satellites like the Hubble; Earth observation satellites from companies like Planet Labs, Umbra, and HawkEye 360; GPS; miniature CubeSats for education and research; and military/defense satellites.

Loading next visibility...
Identifier
63700, 2025-087D
Orbit
LEO
Country
Flag of USUS
Related business
Manufacturer
SpaceX/Seattle
Mission
Operational Commercial Communications
Bus & Motor
STARLINK V2MO, Unknown motor
Mass
575 kg wet, ~530 kg dry
Launch date (UTC)
2025-04-28 (1 year ago)
Launch vehicle
FALCON 9
Launch site
Air Force Western Test Range (AFWTR)
Object type
Payload
Rocket body
Debris
Shape & HBR
Box + 2 Pan, 17.7 m
Radar Cross Section
36.964 m², Large (>1 m²)

Expand to show TLE details & history
Last TLE update: 1 day ago

TLE from 1 day ago
0 STARLINK-33908
1 63700U 25087D   26170.53587802  .00013220  00000-0  45750-3 0  9994
2 63700  53.1608 106.4260 0001640  88.4571 271.6618 15.30212325 64795
Epoch: 2026-06-19T12:51Z
TLE epoch observation values (Epoch: 2026-06-19T12:51:39.860Z)
Latitude
-0.00001°
Longitude
5.74645°
Altitude
476.046 km
Speed
7.629 km/s
True Right ascension
07h 05m 42s
True Declination
0° 00' 00"
Sunlit
Object was in daylight at epoch
Visualization orbit readout
Latitude
Unknown
Longitude
Unknown
Altitude
Unknown
Speed
Unknown
Apparent Right ascension
Unknown
Apparent Declination
Unknown
Sunlit
N/A
Visualization observer readout
Local Sidereal Time
08:42:54
Azimuth
Unknown
Elevation
Unknown
Doppler factor
Unknown
Orbital elements
Apogee altitude
476.559 km
Perigee altitude
474.311 km
Semi-major axis
6,853.572 km
Eccentricity
0.00016
Inclination
53.1608°
RAAN
106.426°
Arg. of periapsis
88.4571°
True anomaly
271.64301°
Mean anomaly
271.6618°
Eccentric anomaly
271.65241°
Mean motion
3.82532 °/min
Orbital period
94.11 mins
BSTAR
0.0004575
Loading maneuver chart data...
Computing Atmospheric mass density...
Loading historical data...
Loading historical data...
Loading historical data...
Loading historical data...
Loading historical data...
Loading historical data...
Loading historical data...

Documentation

Showing up to 5 results
|